Location: Amsterdam
(30.7274°N, 84.4357°W)
Time: 21:59:38
(UTC+00:00)

Tiros 1 despin weight - Pass Details

Date: 22 February 2026
Orbit: 556 x 593 km, 48.2° (Epoch: 7 March)

Event Time Altitude Azimuth Distance (km) Brightness Sun altitude
Rises 18:38:52 0° 253° (WSW) 2,757 ? 47.7°
Reaches altitude 10° 18:41:19 10° 263° (W) 1,855 ? 47.5°
Maximum altitude 18:45:07 31° 327° (NNW) 993 ? 47.3°
Drops below altitude 10° 18:48:53 10° 30° (NNE) 1,843 ? 47.0°
Sets 18:51:20 0° 41° (NE) 2,736 ? 46.8°
